{"data":{"norad_id":48558,"intl_designator":"2021-041F","name":"STARLINK-2166","alt_names":[],"object_type":"PAYLOAD","status":"ACTIVE","operator":null,"country":"US","launch_date":"2021-05-15","launch_site_code":"AFETR","launch_vehicle":null,"mission":null,"orbit_class":"UNKNOWN","rcs_meters":null,"size_class":null,"mass_kg":null,"dimensions":null,"purposes":["comms"],"wikipedia_slug":null,"has_3d_model":false,"image_url":null,"decayed_at":null,"tle_current":{"epoch":"2026-09-19T20:02:30.659712Z","epoch_age_seconds":94693,"freshness":"FRESH","line1":"1 48558U 21041F   26262.83507708  .00001905  00000+0  73123-4 0  9998","line2":"2 48558  53.1600 303.3212 0001397  88.9652 271.1510 15.31703559294167","mean_motion":15.31703559,"eccentricity":0.0001397,"inclination_deg":53.16,"raan_deg":303.3212,"arg_perigee_deg":88.9652,"mean_anomaly_deg":271.151,"bstar":7.3123e-5,"rev_number":29416,"period_min":94.01296951612,"perigee_km":469.77259941825,"apogee_km":471.68617268652,"semimajor_km":6848.8663860524,"source":"CELESTRAK","updated_at":"2026-09-20T09:00:39.133298Z"}}}